• In Hungary
  • List of Countries
  • For 7 days
  • Water Temperature
  • Satellite Maps
  • Weather Map
  • News
  • Weather Widgets
  • user-avatar
    Login

    Hourly Weather Lubsko

    Today, 23 September, Sunday

    Time Temperature Precipitation Wind Pressure Humidity
    00:00 +12°C° 0.1 mm 3 mps 756 mmHg 70%
    01:00 +12°C° 0 mm 3 mps 756 mmHg 75%
    02:00 +12°C° 0.1 mm 3 mps 756 mmHg 78%
    03:00 +11°C° 0.1 mm 3 mps 756 mmHg 81%
    04:00 +11°C° 0.1 mm 3 mps 756 mmHg 84%
    05:00 +11°C° 0 mm 3 mps 755 mmHg 84%
    06:00 +11°C° 0 mm 3 mps 755 mmHg 84%
    07:00 +11°C° 0 mm 3 mps 755 mmHg 84%
    08:00 +12°C° 0.1 mm 3 mps 755 mmHg 78%
    09:00 +13°C° 0.1 mm 3 mps 755 mmHg 73%
    10:00 +14°C° 0.1 mm 3 mps 755 mmHg 67%
    11:00 +14°C° 0.6 mm 2 mps 754 mmHg 72%
    12:00 +14°C° 0.6 mm 2 mps 753 mmHg 78%
    13:00 +13°C° 0.6 mm 2 mps 753 mmHg 83%
    14:00 +13°C° 1 mm 2 mps 752 mmHg 86%
    15:00 +13°C° 1 mm 2 mps 751 mmHg 88%
    16:00 +11°C° 1 mm 3 mps 749 mmHg 91%
    17:00 +11°C° 5.1 mm 3 mps 749 mmHg 92%
    18:00 +10°C° 5.1 mm 4 mps 748 mmHg 92%
    19:00 +9°C° 5.1 mm 5 mps 747 mmHg 93%
    20:00 +9°C° 1.1 mm 5 mps 748 mmHg 93%
    21:00 +9°C° 1.1 mm 5 mps 749 mmHg 92%
    22:00 +8°C° 1.1 mm 4 mps 750 mmHg 91%
    23:00 +8°C° 0.9 mm 5 mps 751 mmHg 90%

    Tomorrow, 24 September, Monday

    Time Temperature Precipitation Wind Pressure Humidity
    00:00 +9°C° 0.9 mm 5 mps 752 mmHg 89%
    01:00 +9°C° 0.9 mm 5 mps 753 mmHg 88%
    02:00 +8°C° 0.2 mm 5 mps 754 mmHg 87%
    03:00 +8°C° 0.2 mm 5 mps 755 mmHg 87%
    04:00 +8°C° 0.2 mm 6 mps 756 mmHg 86%
    05:00 +8°C° 0 mm 6 mps 757 mmHg 85%
    06:00 +7°C° 0 mm 6 mps 757 mmHg 84%
    07:00 +7°C° 0 mm 6 mps 758 mmHg 83%
    08:00 +8°C° 0.1 mm 7 mps 759 mmHg 77%
    09:00 +9°C° 0.1 mm 7 mps 759 mmHg 72%
    10:00 +10°C° 0.1 mm 8 mps 760 mmHg 66%
    11:00 +10°C° 0.2 mm 8 mps 760 mmHg 59%
    12:00 +11°C° 0.2 mm 9 mps 761 mmHg 52%
    13:00 +12°C° 0.2 mm 9 mps 761 mmHg 45%
    14:00 +12°C° 0 mm 8 mps 761 mmHg 44%
    15:00 +12°C° 0 mm 8 mps 761 mmHg 44%
    16:00 +12°C° 0 mm 7 mps 762 mmHg 43%
    17:00 +10°C° 0 mm 6 mps 762 mmHg 47%
    18:00 +9°C° 0 mm 5 mps 763 mmHg 52%
    19:00 +8°C° 0 mm 4 mps 763 mmHg 57%
    20:00 +8°C° 0 mm 4 mps 764 mmHg 60%
    21:00 +7°C° 0 mm 4 mps 765 mmHg 62%
    22:00 +8°C° 0 mm 3 mps 765 mmHg 65%
    23:00 +6°C° 0 mm 4 mps 766 mmHg 67%

    Day after tomorrow, 25 September, Tuesday

    Time Temperature Precipitation Wind Pressure Humidity
    00:00 +6°C° 0 mm 4 mps 766 mmHg 69%
    01:00 +6°C° 0 mm 4 mps 767 mmHg 71%
    02:00 +5°C° 0 mm 4 mps 767 mmHg 73%
    03:00 +5°C° 0 mm 4 mps 767 mmHg 74%
    04:00 +5°C° 0 mm 3 mps 768 mmHg 76%
    05:00 +5°C° 0 mm 4 mps 768 mmHg 76%
    06:00 +5°C° 0 mm 4 mps 769 mmHg 76%
    07:00 +5°C° 0 mm 4 mps 769 mmHg 76%
    08:00 +7°C° 0 mm 4 mps 770 mmHg 68%
    09:00 +10°C° 0 mm 4 mps 770 mmHg 60%
    10:00 +11°C° 0 mm 4 mps 770 mmHg 53%
    11:00 +12°C° 0 mm 4 mps 770 mmHg 49%
    12:00 +13°C° 0 mm 3 mps 770 mmHg 45%
    13:00 +14°C° 0 mm 3 mps 770 mmHg 42%
    14:00 +14°C° 0 mm 3 mps 770 mmHg 42%
    15:00 +13°C° 0 mm 3 mps 770 mmHg 42%
    16:00 +13°C° 0 mm 3 mps 770 mmHg 42%
    17:00 +13°C° 0 mm 2 mps 770 mmHg 48%
    18:00 +10°C° 0 mm 2 mps 770 mmHg 53%
    19:00 +10°C° 0 mm 1 mps 771 mmHg 58%
    20:00 +9°C° 0 mm 1 mps 771 mmHg 60%
    21:00 +9°C° 0 mm 1 mps 771 mmHg 62%
    22:00 +8°C° 0 mm 1 mps 771 mmHg 64%
    23:00 +7°C° 0 mm 2 mps 771 mmHg 66%

    26 September, Wednesday

    Time Temperature Precipitation Wind Pressure Humidity
    00:00 +7°C° 0 mm 2 mps 771 mmHg 67%
    01:00 +7°C° 0 mm 2 mps 771 mmHg 69%
    02:00 +6°C° 0 mm 2 mps 770 mmHg 70%
    03:00 +6°C° 0 mm 2 mps 770 mmHg 72%
    04:00 +6°C° 0 mm 2 mps 770 mmHg 73%
    05:00 +6°C° 0 mm 2 mps 770 mmHg 72%
    06:00 +6°C° 0 mm 2 mps 770 mmHg 70%
    07:00 +7°C° 0 mm 3 mps 770 mmHg 69%
    08:00 +9°C° 0 mm 3 mps 769 mmHg 61%
    09:00 +11°C° 0 mm 3 mps 769 mmHg 54%
    10:00 +13°C° 0 mm 4 mps 769 mmHg 46%
    11:00 +14°C° 0 mm 4 mps 768 mmHg 44%
    12:00 +15°C° 0 mm 4 mps 768 mmHg 41%
    13:00 +15°C° 0 mm 4 mps 767 mmHg 39%
    14:00 +15°C° 0 mm 4 mps 766 mmHg 40%
    15:00 +17°C° 0 mm 4 mps 766 mmHg 41%
    16:00 +17°C° 0 mm 4 mps 765 mmHg 42%
    17:00 +14°C° 0 mm 4 mps 765 mmHg 46%
    18:00 +13°C° 0 mm 4 mps 765 mmHg 50%
    19:00 +12°C° 0 mm 3 mps 765 mmHg 54%
    20:00 +12°C° 0 mm 4 mps 765 mmHg 54%
    21:00 +12°C° 0 mm 4 mps 765 mmHg 53%
    22:00 +12°C° 0 mm 4 mps 764 mmHg 53%
    23:00 +12°C° 0 mm 4 mps 764 mmHg 54%

    27 September, Thursday

    Time Temperature Precipitation Wind Pressure Humidity
    00:00 +12°C° 0 mm 4 mps 764 mmHg 55%
    01:00 +11°C° 0 mm 4 mps 764 mmHg 56%
    02:00 +11°C° 0 mm 4 mps 764 mmHg 57%
    03:00 +11°C° 0 mm 4 mps 763 mmHg 57%
    04:00 +11°C° 0 mm 4 mps 763 mmHg 57%
    05:00 +11°C° 0 mm 4 mps 763 mmHg 57%
    06:00 +11°C° 0 mm 4 mps 763 mmHg 58%
    07:00 +11°C° 0 mm 4 mps 763 mmHg 58%
    08:00 +13°C° 0 mm 4 mps 763 mmHg 56%
    09:00 +14°C° 0 mm 4 mps 763 mmHg 54%
    10:00 +17°C° 0 mm 4 mps 763 mmHg 52%
    11:00 +18°C° 0 mm 4 mps 763 mmHg 52%
    12:00 +20°C° 0 mm 5 mps 763 mmHg 53%
    13:00 +21°C° 0 mm 5 mps 763 mmHg 53%
    14:00 +21°C° 0 mm 4 mps 762 mmHg 54%
    15:00 +21°C° 0 mm 4 mps 762 mmHg 56%
    16:00 +21°C° 0 mm 4 mps 762 mmHg 57%
    17:00 +20°C° 0 mm 3 mps 762 mmHg 63%
    18:00 +18°C° 0 mm 2 mps 762 mmHg 69%
    19:00 +17°C° 0 mm 2 mps 762 mmHg 75%
    20:00 +16°C° 0 mm 2 mps 762 mmHg 76%
    21:00 +16°C° 0 mm 2 mps 762 mmHg 78%
    22:00 +15°C° 0 mm 2 mps 761 mmHg 79%
    23:00 +15°C° 0 mm 2 mps 761 mmHg 79%

    28 September, Friday

    Time Temperature Precipitation Wind Pressure Humidity
    00:00 +14°C° 0 mm 2 mps 761 mmHg 79%
    01:00 +13°C° 0 mm 3 mps 761 mmHg 79%
    02:00 +13°C° 0 mm 3 mps 760 mmHg 79%
    03:00 +13°C° 0 mm 3 mps 760 mmHg 78%
    04:00 +12°C° 0 mm 3 mps 760 mmHg 78%
    05:00 +13°C° 0 mm 3 mps 760 mmHg 78%
    06:00 +14°C° 0 mm 2 mps 760 mmHg 78%
    07:00 +14°C° 0 mm 2 mps 760 mmHg 78%
    08:00 +15°C° 0 mm 2 mps 760 mmHg 74%
    09:00 +17°C° 0 mm 2 mps 760 mmHg 69%
    10:00 +19°C° 0 mm 2 mps 760 mmHg 65%
    11:00 +19°C° 0 mm 2 mps 760 mmHg 64%
    12:00 +20°C° 0 mm 2 mps 760 mmHg 64%
    13:00 +20°C° 0 mm 2 mps 760 mmHg 63%
    14:00 +20°C° 0 mm 2 mps 760 mmHg 67%
    15:00 +19°C° 0 mm 2 mps 760 mmHg 70%
    16:00 +18°C° 0 mm 2 mps 759 mmHg 74%
    17:00 +17°C° 0 mm 2 mps 760 mmHg 77%
    18:00 +16°C° 0 mm 1 mps 760 mmHg 80%
    19:00 +16°C° 0 mm 1 mps 760 mmHg 83%
    20:00 +15°C° 0 mm 1 mps 760 mmHg 83%
    21:00 +15°C° 0 mm 1 mps 760 mmHg 83%
    22:00 +15°C° 0 mm 1 mps 761 mmHg 83%
    23:00 +14°C° 0 mm 1 mps 761 mmHg 82%
    Show more